Evansville, IN

3:07 PM CDT on June 26, 2017 (GMT -0500)
Evansville Regional

Weather History for KEVV - October, 2013

Change the Weather History Date:

Tuesday, October 1, 2013

  Actual Average Record
Temperature  
Mean Temperature 74 °F 63 °F  
Max Temperature 83 °F 75 °F 93 °F (1919)
Min Temperature 65 °F 50 °F 34 °F (1963)
Degree Days  
Heating Degree Days 0 5  
Month to date heating degree days 0 5  
Since 1 July heating degree days 10 52  
Cooling Degree Days 9 2  
Month to date cooling degree days 9 2  
Year to date cooling degree days 1416 1368  
Growing Degree Days 23 (Base 50)    
Moisture  
Dew Point 65 °F    
Average Humidity 76    
Maximum Humidity 93    
Minimum Humidity 58    
Precipitation  
Precipitation 0.00 in 0.10 in 1.78 in (1945)
Month to date precipitation 0.00 0.10  
Year to date precipitation 38.14 34.07  
Snow  
Snow 0.00 in 0.00 in 0.00 in (2002)
Month to date snowfall 0.0 0.0  
Since 1 July snowfall 0.0 0.0  
Since 1 September snowfall 0.0 0.0  
Snow Depth 0.00 in    
Sea Level Pressure  
Sea Level Pressure 30.03 in    
Wind  
Wind Speed 5 mph (SSW)    
Max Wind Speed 13 mph    
Max Gust Speed 15 mph    
Visibility 10 miles    
Events      
T = Trace of Precipitation, MM = Missing Value Source: NWS Daily Summary

Daily Weather History Graph

Daily Weather History Graph

Search for Another Location

Airport or City:

Trip Planner

Search our weather history database for the weather conditions in past years. The results will help you decide how hot, cold, wet, or windy it might be!

Date:

Astronomy

Oct. 01, 2013 Rise Set
Actual Time 6:46 AM CDT 6:32 PM CDT
Civil Twilight 6:19 AM CDT 6:58 PM CDT
Nautical Twilight 5:49 AM CDT 7:29 PM CDT
Astronomical Twilight 5:18 AM CDT 8:00 PM CDT
Moon 3:22 AM CDT (10/1) 4:33 PM CDT (10/1)
Length of Visible Light 12h 39m
Length of Day
11h 46m
Waning Crescent, 12% of the Moon is Illuminated
Oct 1
Waning Crescent
Oct 4
New
Oct 11
First Quarter
Oct 18
Full
Oct 26
Last Quarter

Hourly Weather History & Observations

Time (CDT) Temp. Heat Index Dew Point Humidity Pressure Visibility Wind Dir Wind Speed Gust Speed Precip Events Conditions
12:54 AM 68.0 °F - 64.0 °F 87% 30.00 in 10.0 mi South 3.5 mph - N/A   Overcast
1:54 AM 68.0 °F - 63.0 °F 84% 30.00 in 10.0 mi South 5.8 mph - N/A   Overcast
2:54 AM 68.0 °F - 63.0 °F 84% 30.00 in 10.0 mi South 5.8 mph - N/A   Overcast
3:54 AM 68.0 °F - 63.0 °F 84% 30.01 in 10.0 mi SSW 5.8 mph - N/A   Overcast
4:28 AM 68.0 °F - 62.6 °F 83% 30.02 in 10.0 mi SSW 8.1 mph - N/A   Overcast
4:54 AM 66.9 °F - 63.0 °F 87% 30.02 in 10.0 mi SSW 3.5 mph - N/A   Overcast
5:54 AM 66.9 °F - 63.0 °F 87% 30.04 in 10.0 mi Calm Calm - N/A   Mostly Cloudy
6:54 AM 64.9 °F - 62.1 °F 90% 30.05 in 10.0 mi South 3.5 mph - N/A   Mostly Cloudy
7:54 AM 66.9 °F - 63.0 °F 87% 30.06 in 10.0 mi Calm Calm - N/A   Mostly Cloudy
8:54 AM 70.0 °F - 64.0 °F 81% 30.08 in 10.0 mi South 4.6 mph - N/A   Mostly Cloudy
9:54 AM 73.0 °F - 64.0 °F 73% 30.08 in 10.0 mi South 6.9 mph - N/A   Partly Cloudy
10:54 AM 75.9 °F - 64.9 °F 69% 30.07 in 10.0 mi SSE 9.2 mph - N/A   Scattered Clouds
11:54 AM 78.1 °F - 66.0 °F 66% 30.05 in 10.0 mi SSW 8.1 mph - N/A   Mostly Cloudy
12:54 PM 80.1 °F 81.9 °F 64.9 °F 60% 30.04 in 10.0 mi SW 8.1 mph - N/A   Mostly Cloudy
1:54 PM 81.0 °F 83.0 °F 66.0 °F 60% 30.02 in 10.0 mi South 9.2 mph - N/A   Mostly Cloudy
2:54 PM 82.0 °F 84.5 °F 66.9 °F 60% 30.01 in 10.0 mi SW 10.4 mph - N/A   Mostly Cloudy
3:54 PM 82.0 °F 84.1 °F 66.0 °F 58% 30.01 in 10.0 mi SSW 8.1 mph - N/A   Scattered Clouds
4:54 PM 80.1 °F 82.1 °F 66.0 °F 62% 30.01 in 10.0 mi South 3.5 mph - N/A   Mostly Cloudy
5:54 PM 78.1 °F - 66.9 °F 68% 30.01 in 10.0 mi SSW 5.8 mph - N/A   Partly Cloudy
6:54 PM 73.0 °F - 66.0 °F 79% 30.02 in 10.0 mi SW 4.6 mph - N/A   Partly Cloudy
7:54 PM 73.0 °F - 66.9 °F 81% 30.02 in 10.0 mi SW 3.5 mph - N/A   Clear
8:54 PM 70.0 °F - 66.9 °F 90% 30.04 in 9.0 mi SW 3.5 mph - N/A   Clear
9:54 PM 69.1 °F - 66.0 °F 90% 30.05 in 9.0 mi SSW 3.5 mph - N/A   Clear
10:52 PM 69.8 °F - 66.2 °F 88% 30.06 in 10.0 mi SW 4.6 mph - N/A   Mostly Cloudy
10:54 PM 70.0 °F - 66.9 °F 90% 30.05 in 10.0 mi SW 5.8 mph - N/A   Mostly Cloudy
11:02 PM 69.8 °F - 66.2 °F 88% 30.06 in 9.0 mi SSW 3.5 mph - N/A   Scattered Clouds
11:54 PM 68.0 °F - 66.0 °F 93% 30.05 in 7.0 mi SW 5.8 mph - N/A   Clear